Station NTKM3 - 8449130 - Nantucket Island, MA Image indicating link to RSS feed of recent meteorological observations for station NTKM3


Conditions at NTKM3 as of
(9:30 pm EDT on 04/14/2024)
0130 GMT on 04/15/2024:
     

Click on the graph icon in the table below to see a time series plot of the last five days of that observation.

5-day plot - Wind Direction Wind Direction (WDIR): S ( 190 deg true )
5-day plot - Wind Speed Wind Speed (WSPD): 8.0 kts
5-day plot - Wind Gust Wind Gust (GST): 14.0 kts
5-day plot - Atmospheric Pressure Atmospheric Pressure (PRES):29.76 in
5-day plot - Air Temperature Air Temperature (ATMP): 49.3 °F
5-day plot - Water Temperature Water Temperature (WTMP): 48.9 °F
5-day plot - Wind Chill Wind Chill (CHILL): 45.5 °F
5-day plot - Wind Speed at 10 Meters Wind Speed at 10 meters (WSPD10M): 7.8 kts
5-day plot - Wind Speed at 20 Meters Wind Speed at 20 meters (WSPD20M): 9.7 kts
5-day plot -  Wind Speed, Wind Gust and Atmospheric Pressure Combined plot of Wind Speed, Gust, and Air Pressure
NOS Water Level Observation Network Water Level
Previous observations
TIME
(EDT)
5-day plot - Wind Direction
WDIR
 
5-day plot - Wind Speed
WSPD
kts
5-day plot - Wind Gust
GST
kts
5-day plot - Wave Height
WVHT
ft
5-day plot - Dominant Wave Period
DPD
sec
5-day plot - Average Wave Period
APD
sec
5-day plot - Mean Wave Direction
MWD
 
5-day plot - Atmospheric Pressure
PRES
in
5-day plot - Pressure Tendency
PTDY
in
5-day plot - Air Temperature
ATMP
°F
5-day plot - Water Temperature
WTMP
°F
5-day plot - Dew Point
DEWP
°F
5-day plot - Salinity
SAL
psu
5-day plot - Visibility
VIS
nmi
5-day plot - Tide (above MLLW)
TIDE
ft
2024-04-14 09:24 pmSSW 8.9 15.9----29.77- 49.1 48.9----
2024-04-14 09:18 pm S 9.9 19.0----29.76- 49.1 48.9----
2024-04-14 09:12 pm S 8.9 15.9----29.76- 49.1 48.9----
2024-04-14 09:06 pm S 9.9 15.9----29.76- 49.3 48.9----
2024-04-14 09:00 pmSSW 9.9 21.0----29.77-0.04 49.5 48.9----
2024-04-14 08:54 pmSSW 8.9 18.1----29.77- 49.5 48.7----
2024-04-14 08:48 pm S 9.9 15.0----29.77-- 48.9----
2024-04-14 08:42 pmSSW 9.9 17.1----29.78-- 48.7----
2024-04-14 08:36 pmSSW 11.1 18.1----29.77-- 48.9----
2024-04-14 08:30 pm-------29.77- 49.3 48.7----
2024-04-14 08:24 pm-------29.75- 48.9 48.9----
2024-04-14 08:18 pm S 11.1 17.1------ 48.6 48.9----
2024-04-14 08:12 pmSSW 11.1 15.0------ 48.4 48.9----
2024-04-14 08:06 pmSSW 8.9 15.0------ 48.0 48.9----
2024-04-14 08:00 pmSSW 8.9 15.9----29.78-0.03 47.8 48.9----
2024-04-14 07:54 pmSSW 8.0 18.1----29.79- 47.5 48.9----
2024-04-14 07:48 pmSSW 7.0 14.0----29.79- 47.3 48.9----
2024-04-14 07:42 pmSSW 8.9 15.9----29.80- 47.3 48.9----
2024-04-14 07:36 pmSSW 8.0 14.0----29.81- 47.3 48.9----
2024-04-14 07:30 pmSSW 6.0 13.0----29.82- 47.3 48.9----
2024-04-14 07:24 pmSSW 8.9 15.0----29.82- 47.5 48.9----
2024-04-14 07:00 pm SW 12.0 15.0----29.81+0.00- 48.9----
2024-04-14 06:54 pm SW 8.9 13.0----29.81-- 48.9----
2024-04-14 06:48 pm SW 8.0 14.0----29.81- 48.6 48.9----
2024-04-14 06:42 pmSSW 8.0 13.0----29.81- 48.4 48.9----
2024-04-14 06:36 pmSSW 8.0 12.0----29.82- 48.2 48.9----
2024-04-14 06:30 pm SW 7.0 9.9----29.82- 48.0 48.9----
2024-04-14 06:24 pm S 7.0 11.1----29.80- 47.8 48.9----
2024-04-14 06:18 pmSSW 7.0 12.0----29.80- 47.7 48.9----
2024-04-14 06:12 pmSSW 7.0 13.0----29.81- 47.5 48.9----
2024-04-14 06:06 pmSSW 6.0 12.0----29.81- 47.3 48.9----
2024-04-14 06:00 pmSSW 8.0 13.0----29.81-0.03 47.3 48.9----
2024-04-14 05:54 pmSSW 6.0 13.0----29.81- 47.3 48.9----
2024-04-14 05:48 pm SW 8.9 15.9----29.81-- 48.9----
2024-04-14 05:42 pmSSW 8.9 14.0----29.80-- 48.9----
2024-04-14 05:36 pmSSW 8.0 14.0----29.80-- 48.7----
2024-04-14 05:30 pmSSW 11.1 17.1----29.81-- 48.7----
2024-04-14 05:24 pmSSW 11.1 17.1----29.82-- 48.7----
2024-04-14 05:18 pmSSW 7.0 15.0----29.82- 48.9 48.7----
2024-04-14 05:12 pm SW 7.0 13.0----29.81- 49.1 48.7----
2024-04-14 05:06 pm SW 8.0 13.0----29.81- 49.1 48.7----
2024-04-14 05:00 pmSSW 8.9 15.0----29.81-0.06 49.6 48.6----
2024-04-14 04:54 pmSSW 7.0 14.0----29.81- 50.2 48.6----
2024-04-14 04:48 pm SW 8.0 14.0----29.81- 50.9 48.6----
2024-04-14 04:42 pmSSW 8.0 14.0----29.80- 51.8 48.6----
2024-04-14 04:36 pmSSW 6.0 13.0----29.81- 51.3 48.6----
2024-04-14 04:30 pmSSW 8.0 9.9----29.81- 50.5 48.6----
2024-04-14 04:24 pm SW 8.0 13.0----29.82- 50.5 48.6----
2024-04-14 04:18 pm SW 8.0 14.0----29.81- 51.1 48.6----
2024-04-14 04:12 pm SW 7.0 13.0----29.81- 51.3 48.6----
2024-04-14 04:06 pm SW 8.0 12.0----29.81- 50.5 48.6----
2024-04-14 04:00 pm SW 8.9 15.0----29.81-0.08 49.5 48.6----
2024-04-14 03:54 pm SW 8.0 13.0----29.81- 49.8 48.6----
2024-04-14 03:48 pm SW 8.9 13.0----29.81- 50.4 48.6----
2024-04-14 03:42 pm SW 8.0 12.0----29.81- 50.7 48.4----
2024-04-14 03:36 pmWSW 8.0 13.0----29.81- 50.5 48.4----
2024-04-14 03:30 pm SW 7.0 11.1----29.82- 50.2 48.4----
2024-04-14 03:24 pmWSW 6.0 11.1----29.82- 49.8 48.4----
2024-04-14 03:18 pmWSW 8.0 13.0----29.83- 48.9 48.4----
2024-04-14 03:12 pmWSW 6.0 11.1----29.83- 48.9 48.4----
2024-04-14 03:06 pmWSW 7.0 9.9----29.83- 48.7 48.4----
2024-04-14 03:00 pmWSW 7.0 11.1----29.84-0.05------
2024-04-14 02:54 pmWSW 6.0 11.1----29.84-------
2024-04-14 02:48 pmWSW 7.0 9.9----29.85- 48.7 48.6----
2024-04-14 02:42 pmWSW 7.0 12.0----29.85- 48.6 48.6----
2024-04-14 02:36 pmWSW 5.1 8.9----29.86- 48.4 48.6----
2024-04-14 02:30 pmWSW 5.1 17.1----29.87- 48.4 48.6----
2024-04-14 02:24 pmWSW 8.9 20.0----29.88- 50.0 48.6----
2024-04-14 02:18 pmWSW 12.0 15.9----29.87- 51.1 48.6----
2024-04-14 02:12 pm W 9.9 19.0----29.87- 51.4 48.6----
2024-04-14 02:06 pm W 8.9 17.1----29.87- 51.4 48.6----
2024-04-14 02:00 pmWSW 8.0 19.0----29.87-0.01 52.2 48.6----
2024-04-14 01:54 pm W 8.9 15.9----29.87- 52.9 48.6----
2024-04-14 01:48 pmWSW 8.9 18.1----29.88- 52.5 48.6----
2024-04-14 01:42 pmWSW 9.9 15.0----29.88- 52.3 48.6----
2024-04-14 01:36 pm W 12.0 18.1----29.88- 52.3 48.6----
2024-04-14 01:30 pmWSW 8.0 15.0----29.88- 52.3 48.4----
2024-04-14 01:24 pmWSW 11.1 15.9----29.88- 52.0 48.4----
2024-04-14 01:18 pmWSW 11.1 18.1----29.88- 52.2 48.4----
2024-04-14 01:12 pm W 11.1 20.0----29.88- 52.9 48.4----
2024-04-14 01:06 pmWSW 11.1 17.1----29.88- 52.2 48.4----
2024-04-14 01:00 pm W 13.0 22.0----29.88-0.01 52.0 48.4----
2024-04-14 12:54 pm W 13.0 25.1----29.88- 52.3 48.4----
2024-04-14 12:48 pmWSW 11.1 22.0----29.88-- 48.2----
2024-04-14 12:42 pmWSW 12.0 21.0----29.88-- 48.2----
2024-04-14 12:36 pm W 13.0 20.0----29.88-- 48.2----
2024-04-14 12:30 pm W 12.0 24.1----29.88-- 48.2----
2024-04-14 12:24 pm W 13.0 22.9----29.88-- 48.2----
2024-04-14 12:18 pm W 11.1 15.9----29.88- 53.6 48.2----
2024-04-14 12:12 pm W 9.9 22.0----29.88- 52.7 48.2----
2024-04-14 12:06 pm W 12.0 22.0----29.88- 51.4 48.2----
2024-04-14 12:00 pm W 9.9 21.0----29.88-0.01 51.6 48.2----
2024-04-14 11:54 am W 11.1 22.9----29.88- 51.4 48.2----
2024-04-14 11:48 am W 13.0 22.9----29.88- 51.6 48.2----
2024-04-14 11:42 am W 8.9 22.9----29.88- 52.0 48.2----
2024-04-14 11:36 am W 9.9 19.0----29.88- 51.4 48.4----
2024-04-14 11:30 am W 15.0 24.1----29.88-- 48.4----
2024-04-14 11:24 am W 12.0 19.0----29.88-- 48.4----
2024-04-14 11:18 am W 9.9 19.0----29.88-- 48.4----
2024-04-14 11:12 am W 12.0 18.1----29.88-- 48.4----
2024-04-14 11:06 am W 11.1 21.0----29.88-- 48.4----
2024-04-14 11:00 am W 11.1 18.1----29.88+0.00 50.9 48.4----
2024-04-14 10:54 am W 11.1 22.0----29.89- 50.4 48.4----
2024-04-14 10:48 am W 12.0 22.0----29.89- 50.4 48.4----
2024-04-14 10:42 am W 12.0 19.0----29.89- 50.4 48.4----
2024-04-14 10:36 am W 12.0 19.0----29.90- 49.6 48.4----
2024-04-14 10:30 am W 9.9 19.0----29.90- 50.0 48.4----
2024-04-14 10:24 am W 8.9 20.0----29.91- 50.0 48.4----
2024-04-14 10:18 am W 8.9 19.0----29.90- 50.4 48.4----
2024-04-14 10:12 am W 12.0 20.0----29.90- 50.4 48.4----
2024-04-14 10:06 am W 9.9 20.0----29.90- 50.7 48.4----
2024-04-14 10:00 am W 12.0 21.0----29.89+0.04- 48.4----
2024-04-14 09:54 am W 8.9 19.0----29.90-- 48.4----
2024-04-14 09:48 am W 8.9 19.0----29.90- 50.5 48.4----
2024-04-14 09:42 am W 11.1 20.0----29.89- 50.4 48.4----
2024-04-14 09:36 am W 9.9 20.0----29.90- 50.4 48.4----
2024-04-14 09:30 am W 14.0 18.1----29.91-- 48.4----
2024-04-14 09:24 am W 11.1 18.1----29.90-- 48.4----
2024-04-14 09:18 am W 9.9 18.1----29.90- 50.7 48.4----
2024-04-14 09:12 am W 9.9 20.0----29.90- 50.2 48.4----
2024-04-14 09:06 am W 11.1 19.0----29.89- 50.0 48.4----
2024-04-14 09:00 am W 9.9 19.0----29.89- 49.6 48.4----
2024-04-14 08:54 am W 13.0 18.1----29.89- 49.1 48.4----
2024-04-14 08:48 am-------29.89- 49.6 48.4----
2024-04-14 08:42 am-------29.89- 49.5 48.4----
2024-04-14 08:36 am-------29.89- 49.1 48.4----
2024-04-14 08:30 am W 8.9 18.1----29.89-- 48.4----
2024-04-14 08:24 am W 8.9 19.0----29.88-- 48.4----
2024-04-14 08:18 am W 9.9 15.0----29.88- 49.1 48.4----
2024-04-14 08:12 am W 12.0 19.0----29.88- 48.7 48.4----
2024-04-14 08:06 am W 8.9 14.0----29.88- 48.9 48.4----
2024-04-14 08:00 am W 8.9 12.0----29.88+0.07- 48.4----
2024-04-14 07:54 am W 7.0 11.1----29.88-- 48.4----
2024-04-14 07:48 am W 7.0 15.9----29.87-- 48.4----
2024-04-14 07:42 am W 8.0 15.0----29.87-- 48.4----
2024-04-14 07:36 am W 8.9 15.9----29.87-- 48.4----
2024-04-14 07:30 am W 8.0 15.9----29.86- 48.0 48.4----
2024-04-14 07:24 am W 7.0 15.9----29.86- 47.8 48.4----
2024-04-14 07:18 am W 8.0 15.0----29.86-------
2024-04-14 07:12 am W 11.1 15.9----29.86-------
2024-04-14 07:06 am W 8.9 17.1----29.85-------
2024-04-14 07:00 am W 8.9 15.0----29.85+0.06 47.1 48.2----
2024-04-14 06:54 am W 8.0 15.9----29.85- 46.8 48.2----
2024-04-14 06:48 am W 8.9 14.0----29.85-- 48.2----
2024-04-14 06:42 am W 7.0 17.1----29.85-- 48.2----
2024-04-14 06:36 am W 8.0 17.1----29.85-- 48.2----
2024-04-14 06:30 am W 8.9 15.9----29.85- 46.6 48.2----
2024-04-14 06:24 am W 9.9 15.9----29.85- 46.6 48.2----
2024-04-14 06:18 am W 8.9 17.1----29.85- 46.4 48.2----
2024-04-14 06:12 am W 11.1 17.1----29.85- 46.6 48.2----
2024-04-14 06:06 am W 8.9 15.9----29.84- 46.4 48.2----
2024-04-14 06:00 am W 8.9 17.1------ 46.4-----
2024-04-14 05:54 am W 9.9 18.1------ 46.4-----
2024-04-14 05:48 am W 9.9 15.9------ 46.6 48.2----
2024-04-14 05:42 am W 12.0 17.1------ 46.6 48.2----
2024-04-14 05:36 am W 7.0 17.1------ 46.6 48.2----
2024-04-14 05:30 am W 7.0 13.0----29.82-- 48.2----
2024-04-14 05:24 am W 8.9 15.0----29.82-- 48.4----
2024-04-14 05:18 am W 7.0 15.0----29.82- 46.4 48.4----
2024-04-14 05:12 am W 8.9 13.0----29.82- 46.6 48.4----
2024-04-14 05:06 am W 6.0 15.0----29.81- 46.6 48.4----
2024-04-14 05:00 am W 9.9 18.1----29.81+0.06 46.8 48.4----
2024-04-14 04:54 am W 8.9 15.9----29.81- 46.8 48.4----
2024-04-14 04:48 am W 8.9 15.9----29.81- 46.8 48.4----
2024-04-14 04:42 am W 9.9 18.1----29.80- 46.9 48.4----
2024-04-14 04:36 am W 8.9 15.0----29.80- 46.8 48.4----
2024-04-14 04:30 am W 8.0 15.0----29.80- 46.6 48.4----
2024-04-14 04:24 am W 8.9 15.9----29.80- 46.6 48.4----
2024-04-14 04:18 amWSW 8.0 17.1----29.79- 46.4 48.4----
2024-04-14 04:12 am W 8.9 17.1----29.79- 46.6 48.4----
2024-04-14 04:06 amWSW 8.0 18.1----29.79- 46.4 48.4----
2024-04-14 04:00 amWSW 8.0 17.1----29.79+0.04 46.4 48.4----
2024-04-14 03:54 am W 11.1 15.0----29.78- 46.4 48.4----
2024-04-14 03:48 am W 8.0 15.9----29.78- 46.6 48.4----
2024-04-14 03:42 am W 11.1 17.1----29.78- 46.8 48.4----
2024-04-14 03:36 am W 9.9 17.1----29.78- 46.8 48.4----
2024-04-14 03:30 am W 11.1 19.0----29.78- 46.8 48.4----
2024-04-14 03:24 am W 11.1 19.0----29.78- 46.9 48.4----
2024-04-14 03:18 am W 8.9 20.0----29.77- 46.8 48.4----
2024-04-14 03:12 am W 7.0 15.0----29.77- 46.6 48.4----
2024-04-14 03:06 am W 9.9 15.9----29.77- 46.6 48.4----
2024-04-14 03:00 am W 8.0 13.0----29.77+0.03 46.4 48.4----
2024-04-14 02:54 am W 8.9 17.1----29.77- 46.6 48.4----
2024-04-14 02:48 am W 9.9 17.1----29.77- 46.8 48.4----
2024-04-14 02:42 am W 11.1 17.1----29.77- 46.9 48.4----
2024-04-14 02:36 am W 8.9 17.1----29.76- 46.9 48.4----
2024-04-14 02:30 am W 8.9 18.1----29.76- 46.8 48.4----
2024-04-14 02:24 am W 7.0 15.9----29.76- 46.8 48.4----
2024-04-14 02:18 am W 7.0 15.9----29.75- 46.9 48.4----
2024-04-14 02:12 am W 7.0 13.0----29.75- 46.9 48.4----
2024-04-14 02:06 am W 9.9 15.0----29.75- 46.9 48.4----
2024-04-14 02:00 am W 8.0 21.0----29.75+0.04 47.1 48.4----
2024-04-14 01:54 am W 8.0 21.0----29.75- 47.1 48.4----
2024-04-14 01:48 am W 8.0 15.9----29.75- 47.1 48.4----
2024-04-14 01:42 am W 8.9 20.0----29.75- 47.1 48.4----
2024-04-14 01:36 am W 8.9 15.0----29.75- 46.9 48.4----
2024-04-14 01:30 am W 8.0 19.0----29.75- 46.9 48.4----
2024-04-14 01:24 am W 9.9 19.0----29.75- 46.9 48.4----
2024-04-14 01:18 am W 9.9 14.0----29.75- 46.8 48.4----
2024-04-14 01:12 am W 9.9 18.1----29.75- 46.9 48.6----
2024-04-14 01:06 am W 9.9 19.0----29.75- 47.1 48.6----
2024-04-14 01:00 am W 8.0 18.1----29.75+0.05 47.1 48.6----
2024-04-14 12:54 am W 11.1 19.0----29.75- 47.1 48.6----
2024-04-14 12:48 am W 11.1 18.1----29.75- 46.9 48.6----
2024-04-14 12:42 am W 8.0 19.0----29.75- 46.9 48.6----
2024-04-14 12:36 am W 8.9 17.1----29.75- 46.8 48.6----
2024-04-14 12:30 am W 9.9 18.1----29.75- 46.8 48.6----
2024-04-14 12:24 am W 12.0 19.0----29.75- 46.8 48.6----
2024-04-14 12:18 am W 8.9 20.0----29.74- 46.6 48.6----
2024-04-14 12:12 am W 8.9 17.1----29.74- 46.8 48.6----
2024-04-14 12:06 am W 9.9 19.0----29.74- 46.6 48.6----
2024-04-14 12:00 am W 8.9 15.9----29.74+0.06 46.6 48.6----
2024-04-13 11:54 pm W 11.1 20.0----29.74- 46.6 48.6----
2024-04-13 11:48 pm W 11.1 18.1----29.73- 46.8 48.6----
2024-04-13 11:42 pm W 8.0 19.0----29.73- 46.8 48.6----
2024-04-13 11:36 pm W 8.9 19.0----29.73- 46.8 48.6----
2024-04-13 11:30 pm W 8.0 21.0----29.73- 46.8 48.6----
2024-04-13 11:24 pm W 8.0 18.1----29.73- 46.8 48.6----
2024-04-13 11:18 pm W 8.0 18.1----29.72- 46.8 48.6----
2024-04-13 11:12 pm W 11.1 19.0----29.72- 46.9 48.6----
2024-04-13 11:06 pm W 9.9 19.0----29.72- 46.9 48.6----
2024-04-13 11:00 pm W 8.9 24.1----29.72+0.08 46.9 48.6----
2024-04-13 10:54 pm W 9.9 19.0----29.72- 46.9 48.6----
2024-04-13 10:48 pm W 12.0 20.0----29.72- 46.9 48.6----
2024-04-13 10:42 pm W 9.9 19.0----29.71- 46.8 48.6----
2024-04-13 10:36 pm W 13.0 19.0----29.71- 46.8 48.6----
2024-04-13 10:30 pm W 9.9 19.0----29.70- 46.6 48.6----
2024-04-13 10:24 pm W 11.1 19.0----29.70- 46.4 48.6----
2024-04-13 10:18 pm W 8.9 22.0----29.70- 46.4 48.7----
2024-04-13 10:12 pm W 12.0 17.1----29.70- 46.2 48.6----
2024-04-13 10:06 pm W 9.9 21.0----29.70- 46.2 48.7----
2024-04-13 10:00 pm W 11.1 21.0----29.70+0.10 46.2 48.7----
2024-04-13 09:54 pmWSW 8.9 17.1----29.70- 46.2 48.7----